TimeMST,TemperatureF,Dew PointF,Humidity,Sea Level PressureIn,VisibilityMPH,Wind Direction,Wind SpeedMPH,Gust SpeedMPH,PrecipitationIn,Events,Conditions,WindDirDegrees,DateUTC
12:51 AM,42.1,17.1,37,29.96,10.0,SE,10.4,-,N/A,,Clear,130,2012-12-30 07:51:00
1:51 AM,42.1,17.1,37,29.95,10.0,SE,8.1,-,N/A,,Clear,130,2012-12-30 08:51:00
2:51 AM,42.1,17.1,37,29.93,10.0,ESE,10.4,-,N/A,,Clear,120,2012-12-30 09:51:00
3:51 AM,43.0,16.0,34,29.91,10.0,SSE,10.4,-,N/A,,Clear,150,2012-12-30 10:51:00
4:51 AM,42.1,16.0,35,29.90,10.0,ESE,9.2,-,N/A,,Clear,120,2012-12-30 11:51:00
5:51 AM,41.0,16.0,36,29.90,10.0,ESE,9.2,-,N/A,,Clear,120,2012-12-30 12:51:00
6:51 AM,42.1,16.0,35,29.91,10.0,SE,10.4,-,N/A,,Clear,130,2012-12-30 13:51:00
7:51 AM,42.1,15.1,34,29.91,10.0,SE,10.4,-,N/A,,Clear,130,2012-12-30 14:51:00
8:51 AM,43.0,16.0,34,29.93,10.0,SSE,12.7,-,N/A,,Clear,150,2012-12-30 15:51:00
9:51 AM,45.0,16.0,31,29.92,10.0,SE,9.2,-,N/A,,Clear,140,2012-12-30 16:51:00
10:51 AM,50.0,18.0,28,29.90,10.0,ESE,11.5,-,N/A,,Clear,120,2012-12-30 17:51:00
11:51 AM,54.0,17.1,23,29.85,10.0,East,11.5,-,N/A,,Clear,100,2012-12-30 18:51:00
12:51 PM,57.0,17.1,21,29.78,10.0,ESE,12.7,19.6,N/A,,Clear,110,2012-12-30 19:51:00
1:51 PM,59.0,18.0,20,29.73,10.0,ESE,12.7,19.6,N/A,,Clear,110,2012-12-30 20:51:00
2:51 PM,61.0,17.1,18,29.69,10.0,SE,12.7,-,N/A,,Clear,140,2012-12-30 21:51:00
3:51 PM,61.0,19.0,20,29.67,10.0,South,19.6,27.6,N/A,,Clear,170,2012-12-30 22:51:00
4:25 PM,53.6,19.4,26,29.74,10.0,West,16.1,24.2,N/A,,Clear,270,2012-12-30 23:25:00
4:36 PM,53.6,17.6,24,29.74,10.0,WNW,24.2,-,N/A,,Clear,290,2012-12-30 23:36:00
4:51 PM,53.1,18.0,25,29.71,10.0,WNW,17.3,23.0,N/A,,Partly Cloudy,300,2012-12-30 23:51:00
5:51 PM,51.1,19.9,29,29.73,10.0,NW,15.0,-,N/A,,Partly Cloudy,310,2012-12-31 00:51:00
6:51 PM,50.0,21.9,33,29.77,10.0,NW,16.1,-,N/A,,Overcast,320,2012-12-31 01:51:00
7:51 PM,48.9,25.0,39,29.78,10.0,NW,16.1,-,N/A,,Overcast,320,2012-12-31 02:51:00
8:51 PM,46.0,28.9,51,29.82,10.0,NW,19.6,25.3,N/A,,Overcast,310,2012-12-31 03:51:00
9:51 PM,44.1,30.9,60,29.82,10.0,NNW,15.0,-,0.00,,Overcast,330,2012-12-31 04:51:00
10:51 PM,43.0,34.0,71,29.83,10.0,NNW,12.7,-,0.00,Rain,Light Rain,330,2012-12-31 05:51:00
11:51 PM,41.0,35.1,79,29.86,10.0,WNW,9.2,-,0.00,,Overcast,290,2012-12-31 06:51:00